Coventry, United Kingdom

11:02 PM BST on July 24, 2016 (GMT +0100)
Coventry

Weather History for EGBE - April, 2014

Change the Weather History Date:

Sunday, April 13, 2014

  Actual Average Record
Temperature  
Mean Temperature 52 °F -  
Max Temperature 59 °F 56 °F 62 °F (2003)
Min Temperature 46 °F 41 °F 30 °F (2015)
Degree Days  
Heating Degree Days 12    
Growing Degree Days 2 (Base 50)    
Moisture  
Dew Point 38 °F    
Average Humidity 53    
Maximum Humidity 66    
Minimum Humidity 48    
Precipitation  
Precipitation 0.00 in - - ()
Sea Level Pressure  
Sea Level Pressure 30.16 in    
Wind  
Wind Speed 11 mph ()    
Max Wind Speed 15 mph    
Max Gust Speed -    
Visibility 6.2 miles    
Events      
Averages and records for this station are not official NWS values.
T = Trace of Precipitation, MM = Missing Value Source: Averaged Metar Reports

Daily Weather History Graph

Daily Weather History Graph

Search for Another Location

Airport or City:

Trip Planner

Search our weather history database for the weather conditions in past years. The results will help you decide how hot, cold, wet, or windy it might be!

Date:

Astronomy

Apr. 13, 2014 Rise Set
Actual Time 6:13 AM BST 8:00 PM BST
Civil Twilight 5:37 AM BST 8:36 PM BST
Nautical Twilight 4:53 AM BST 9:21 PM BST
Astronomical Twilight 4:03 AM BST 10:11 PM BST
Moon 6:12 PM BST (4/13) 5:18 AM BST (4/13)
Length of Visible Light 14h 59m
Length of Day
13h 47m
Waxing Gibbous, 96% of the Moon is Illuminated
Apr 13
Waxing Gibbous
Apr 15
Full
Apr 22
Last Quarter
Apr 29
New
May 7
First Quarter

Hourly Weather History & Observations

Time (BST) Temp. Windchill Dew Point Humidity Pressure Visibility Wind Dir Wind Speed Gust Speed Precip Events Conditions
8:20 AM 46.4 °F 43.5 °F 35.6 °F 66% 30.18 in - WSW 5.8 mph - N/A   Clear
8:50 AM 48.2 °F - 35.6 °F 62% 30.18 in 6.2 mi WNW 11.5 mph - N/A   Partly Cloudy
9:20 AM 50.0 °F - 33.8 °F 54% 30.18 in 6.2 mi WNW 15.0 mph - N/A   Partly Cloudy
9:50 AM 51.8 °F - 35.6 °F 54% 30.18 in 6.2 mi West 12.7 mph - N/A   Partly Cloudy
10:20 AM 51.8 °F - 35.6 °F 54% 30.18 in 6.2 mi West 12.7 mph - N/A   Scattered Clouds
10:50 AM 51.8 °F - 35.6 °F 54% 30.18 in 6.2 mi WNW 13.8 mph - N/A   Scattered Clouds
11:20 AM 53.6 °F - 37.4 °F 54% 30.18 in 6.2 mi West 12.7 mph - N/A   Scattered Clouds
11:50 AM 53.6 °F - 37.4 °F 54% 30.18 in 6.2 mi WNW 12.7 mph - N/A   Scattered Clouds
12:20 PM 55.4 °F - 39.2 °F 54% 30.18 in 6.2 mi WNW 11.5 mph - N/A   Scattered Clouds
12:50 PM 53.6 °F - 37.4 °F 54% 30.18 in 6.2 mi NW 13.8 mph - N/A   Scattered Clouds
1:20 PM 55.4 °F - 37.4 °F 51% 30.18 in 6.2 mi WNW 11.5 mph - N/A   Scattered Clouds
1:50 PM 55.4 °F - 39.2 °F 54% 30.18 in 6.2 mi West 13.8 mph - N/A   Scattered Clouds
2:20 PM 57.2 °F - 39.2 °F 51% 30.18 in 6.2 mi West 12.7 mph - N/A   Scattered Clouds
2:50 PM 55.4 °F - 39.2 °F 54% 30.15 in 6.2 mi West 11.5 mph - N/A   Scattered Clouds
3:20 PM 57.2 °F - 39.2 °F 51% 30.15 in 6.2 mi West 13.8 mph - N/A   Partly Cloudy
3:50 PM 57.2 °F - 39.2 °F 51% 30.15 in 6.2 mi West 15.0 mph - N/A   Partly Cloudy
4:20 PM 59.0 °F - 39.2 °F 48% 30.12 in 6.2 mi West 13.8 mph - N/A   Partly Cloudy
4:50 PM 59.0 °F - 39.2 °F 48% 30.12 in 6.2 mi West 15.0 mph - N/A   Partly Cloudy
5:20 PM 59.0 °F - 39.2 °F 48% 30.12 in 6.2 mi West 11.5 mph - N/A   Partly Cloudy
5:50 PM 59.0 °F - 39.2 °F 48% 30.12 in - WSW 13.8 mph - N/A   Clear
6:20 PM 59.0 °F - 39.2 °F 48% 30.12 in 6.2 mi West 13.8 mph - N/A   Partly Cloudy
6:50 PM 57.2 °F - 41.0 °F 55% 30.12 in 6.2 mi West 12.7 mph - N/A   Partly Cloudy